Location: Newark
(35.9031°N, 139.7175°E)
Time: 22:11:10
(UTC+00:00)

Explorer 7 - All Passes

Search period start: 25 May 2020 00:00
Search period end: 04 June 2020 00:00
Orbit: 485 x 679 km, 50.3° (Epoch: 24 May)

Date Brightness Start Highest point End Pass type
(mag) Time Alt. Az. Time Alt. Az. Time Alt. Az.
25 May - 13:57:39 10° SSW 14:02:02 37° SE 14:06:15 10° ENE visible
25 May - 15:38:12 10° WSW 15:42:36 39° NNW 15:46:46 10° NE visible
25 May - 17:21:43 10° NW 17:24:06 14° NNW 17:26:24 10° NNE visible
25 May - 19:04:22 10° NNW 19:06:08 12° N 19:07:53 10° NNE daylight
25 May - 20:44:10 10° NNW 20:47:47 29° NNE 20:51:14 10° E daylight
25 May - 22:24:38 10° WNW 22:28:18 37° SW 22:31:50 10° SSE daylight
26 May - 14:02:01 10° SW 14:06:45 62° SE 14:11:17 10° ENE visible
26 May - 15:43:34 10° W 15:47:34 27° NNW 15:51:23 10° NNE visible
26 May - 17:27:25 10° NNW 17:29:18 12° N 17:31:09 10° NNE visible
26 May - 19:09:00 10° NNW 19:11:21 14° NNE 19:13:38 10° NE daylight
26 May - 20:48:48 10° NW 20:52:44 45° NE 20:56:28 10° ESE daylight
26 May - 22:29:57 10° W 22:32:57 21° SW 22:35:51 10° S daylight
27 May - 12:28:31 10° SSE 12:31:22 16° SE 12:34:09 10° E night (unlit)
27 May - 14:06:44 10° SW 14:11:33 82° NW 14:16:08 10° NE visible
27 May - 15:49:06 10° WNW 15:52:37 21° NNW 15:56:00 10° NNE visible
27 May - 17:32:53 10° NNW 17:34:32 12° N 17:36:09 10° NNE visible
27 May - 19:13:33 10° NNW 19:16:30 18° NNE 19:19:20 10° ENE daylight
27 May - 20:53:31 10° NW 20:57:36 78° NE 21:01:28 10° SE daylight
27 May - 22:36:13 10° WSW 22:37:31 11° SW 22:38:48 10° SW daylight
28 May - 12:31:57 10° S 12:35:59 26° SE 12:39:54 10° ENE night (unlit)
28 May - 14:11:43 10° WSW 14:16:23 52° NW 14:20:51 10° NE visible
28 May - 15:54:46 10° WNW 15:57:44 17° NNW 16:00:37 10° NNE visible
28 May - 17:38:00 10° NNW 17:39:47 12° N 17:41:31 10° NNE visible
28 May - 19:18:08 10° NNW 19:21:36 24° NNE 19:24:53 10° E daylight
28 May - 20:58:22 10° WNW 21:02:23 59° SW 21:06:10 10° SE daylight
29 May - 12:36:03 10° SSW 12:40:39 43° SE 12:45:07 10° ENE visible
29 May - 14:16:55 10° W 14:21:19 35° NNW 14:25:32 10° NE visible
29 May - 16:00:27 10° NW 16:02:55 14° NNW 16:05:19 10° NNE visible
29 May - 17:42:48 10° NNW 17:45:01 13° N 17:47:09 10° NE visible
29 May - 19:22:44 10° NW 19:26:37 34° NNE 19:30:16 10° E daylight
29 May - 21:03:26 10° WNW 21:07:04 32° SW 21:10:32 10° SSE daylight
30 May - 11:04:23 10° SE 11:05:23 11° SE 11:06:24 10° ESE night (unlit)
30 May - 12:40:33 10° SW 12:45:23 72° SE 12:50:05 10° NE visible
30 May - 14:22:19 10° W 14:26:19 26° NNW 14:30:10 10° NNE visible
30 May - 16:06:04 10° NNW 16:08:08 13° N 16:10:10 10° NNE visible
30 May - 17:47:27 10° NNW 17:50:13 16° NNE 17:52:51 10° NE visible
30 May - 19:27:23 10° NW 19:31:32 54° NE 19:35:26 10° ESE daylight
30 May - 21:08:53 10° W 21:11:40 18° SW 21:14:22 10° S daylight
31 May - 11:06:35 10° S 11:09:57 19° SE 11:13:17 10° E visible
31 May - 12:45:20 10° WSW 12:50:12 72° NW 12:54:53 10° NE visible
31 May - 14:27:53 10° WNW 14:31:24 20° NNW 14:34:47 10° NNE visible
31 May - 16:11:25 10° NNW 16:13:23 12° N 16:15:18 10° NNE visible
31 May - 17:52:03 10° NNW 17:55:20 20° NNE 17:58:29 10° ENE visible
31 May - 19:32:09 10° NW 19:36:23 89° SW 19:40:20 10° SE daylight
01 Jun - 11:10:17 10° SSW 11:14:34 31° SE 11:18:47 10° ENE visible
01 Jun - 12:50:23 10° WSW 12:55:04 47° NW 12:59:36 10° NE visible
01 Jun - 14:33:32 10° NW 14:36:32 16° NNW 14:39:27 10° NNE visible
01 Jun - 16:16:28 10° NNW 16:18:37 13° N 16:20:44 10° NE visible
01 Jun - 17:56:39 10° NNW 18:00:25 27° NNE 18:03:59 10° E visible
01 Jun - 19:37:03 10° WNW 19:41:08 50° SW 19:44:57 10° SSE daylight
02 Jun - 11:14:30 10° SSW 11:19:15 51° SE 11:23:54 10° ENE visible
02 Jun - 12:55:38 10° W 13:00:01 33° NNW 13:04:15 10° NE visible
02 Jun - 14:39:11 10° NW 14:41:44 14° N 14:44:12 10° NNE visible
02 Jun - 16:21:15 10° NNW 16:23:50 15° NNE 16:26:22 10° NE visible
02 Jun - 18:01:17 10° NW 18:05:24 40° NNE 18:09:17 10° ESE visible
02 Jun - 19:42:12 10° WNW 19:45:47 28° SW 19:49:12 10° S daylight
03 Jun - 09:41:46 10° SSE 09:43:56 13° SE 09:46:07 10° E daylight
03 Jun - 11:19:06 10° SW 11:24:00 83° SE 11:28:48 10° NE visible
03 Jun - 13:01:05 10° W 13:05:02 24° NNW 13:08:54 10° NNE visible
03 Jun - 14:44:42 10° NNW 14:46:58 13° N 14:49:09 10° NNE visible
03 Jun - 16:25:55 10° NNW 16:29:02 18° NNE 16:32:01 10° ENE visible
03 Jun - 18:05:58 10° NW 18:10:19 64° NE 18:14:22 10° ESE visible
03 Jun - 19:47:48 10° W 19:50:22 16° SW 19:52:50 10° SSW daylight
